Location: Brno
(49.2000°N, 16.6330°E)
Time: 02:46:09
(UTC+02:00)

Vanguard 3 - Pass Details

Date: 05 August 2021
Orbit: 510 x 3260 km, 33.3° (Epoch: 16 September)

Event Time Altitude Azimuth Distance (km) Brightness Sun altitude
Rises 01:13:14 0° 273° (W) 7,145 12.0 -23.8°
Reaches altitude 10° 01:22:38 10° 251° (WSW) 6,190 11.4 -23.6°
Maximum altitude 01:29:07 13° 231° (SW) 5,835 11.1 -23.5°
Enters shadow 01:30:09 13° 228° (SW) 5,808 11.0 -23.5°
Drops below altitude 10° 01:35:19 10° 211° (SSW) 5,813 - -23.4°
Sets 01:43:32 0° 187° (S) 6,301 - -23.1°
